Terug naar catalogus

ARIANE 44LP DEB

LostHEO
NORAD 48351·DEBRIS·🇫🇷 France

Gelanceerd Dec 11, 1988 vanaf Guiana Space Centre

Loading…

Volgende Passages (komende 24 uur)

TLE

VerouderdSource: Space-Track

Epoch: Jan 22, 2025, 00:56 UTC

1 48351U 88109X   25022.03929840  .00001069  00000-0  36153-2 0  9999
2 48351   7.4816 258.4657 6911856 282.1999  13.6309  2.63670480 88871

Volg ARIANE 44LP DEB in realtime met AllMySat

Download on the App Store